Location: Anjeux
(47.8815°N, 6.2076°E)
Time: 03:45:49
(UTC+00:00)

CUTE-I - Visible Passes

Search period start: 29 November 2021 00:00
Search period end: 09 December 2021 00:00
Orbit: 811 x 824 km, 98.7° (Epoch: 28 November)

Date Brightness Start Highest point End Pass type
(mag) Time Alt. Az. Time Alt. Az. Time Alt. Az.
29 Nov ? 04:23:39 10° ENE 04:25:17 11° E 04:26:55 10° ESE visible
29 Nov ? 06:00:49 10° NNE 06:06:14 76° ESE 06:11:36 10° S visible
29 Nov ? 17:26:20 10° S 17:31:29 50° W 17:36:42 10° NNW visible
30 Nov ? 05:39:21 10° NNE 05:44:37 51° E 05:49:49 10° S visible
30 Nov ? 17:04:32 10° S 17:09:52 75° WSW 17:15:15 10° NNW visible
30 Nov ? 18:49:26 10° W 18:50:49 11° W 18:52:13 10° WNW visible
01 Dec ? 05:18:03 10° NNE 05:22:55 34° E 05:27:45 10° SSE visible
01 Dec ? 16:42:59 10° SSE 16:48:18 75° ENE 16:53:40 10° NNW visible
01 Dec ? 18:25:29 10° SW 18:28:55 17° W 18:32:24 10° NW visible
02 Dec ? 04:56:56 10° NE 05:01:09 23° E 05:05:21 10° SE visible
02 Dec ? 16:21:41 10° SE 16:26:49 51° ENE 16:32:00 10° N visible
02 Dec ? 18:02:43 10° SSW 18:07:07 26° W 18:11:33 10° NW visible
03 Dec ? 04:36:15 10° NE 04:39:19 15° E 04:42:22 10° ESE visible
03 Dec ? 06:14:37 10° NNE 06:20:02 85° WNW 06:25:25 10° SSW visible
03 Dec ? 17:40:26 10° SSW 17:45:22 38° W 17:50:22 10° NNW visible
04 Dec ? 05:53:04 10° NNE 05:58:27 66° ESE 06:03:48 10° S visible
04 Dec ? 17:18:27 10° S 17:23:42 58° W 17:29:00 10° NNW visible
05 Dec ? 05:31:40 10° NNE 05:36:49 44° E 05:41:55 10° S visible
05 Dec ? 16:56:45 10° SSE 17:02:05 85° WSW 17:07:30 10° NNW visible
05 Dec ? 18:40:31 10° WSW 18:42:56 13° W 18:45:22 10° WNW visible
06 Dec ? 05:10:25 10° NE 05:15:06 29° E 05:19:44 10° SSE visible
06 Dec ? 16:35:17 10° SSE 16:40:34 65° ENE 16:45:54 10° N visible
06 Dec ? 18:17:13 10° SW 18:21:04 20° W 18:24:57 10° NW visible
07 Dec ? 04:49:25 10° NE 04:53:18 20° E 04:57:10 10° SE visible
07 Dec ? 06:28:28 10° N 06:33:49 66° WNW 06:39:08 10° SSW visible
07 Dec ? 16:14:04 10° SE 16:19:06 44° ENE 16:24:11 10° N visible
07 Dec ? 17:54:39 10° SSW 17:59:17 30° W 18:03:58 10° NW visible
08 Dec ? 04:29:02 10° ENE 04:31:26 13° E 04:33:50 10° ESE visible
08 Dec ? 06:06:51 10° NNE 06:12:17 84° ESE 06:17:40 10° SSW visible
08 Dec ? 17:32:28 10° S 17:37:33 44° W 17:42:42 10° NNW visible
